SKYNET 4E

Last updated on Nov. 15, 2019, 4:20 a.m. UTC

1 25639U 99009B   19317.90938595 -.00000021  00000-0  00000+0 0  9994
2 25639  10.7555  22.3917 0003212 217.1980 139.2611  1.00271892 75870
UTC
Height (km)
Latitude
Longitude
Inclination
Orbital Period
UTC large
Height (km)
Speed (km/s)
/
Latitude / Longitude
Inclination (degrees)
Orbital Period (minutes)
Azimuth
Elevation
Range (km)
Doppler Factor
iOS Compass Heading
iOS Angle

Next 30 passes for location: Hong Kong

Rise time Rise Azimuth (degrees) Set time Set Azimuth (degrees) Duration Max altitude (degrees)

No matching passes for this satellites